Tracking 19794 objects as of 22-Jul-2019
HD Live streaming from Space Station
objects crossing your sky now

LEMUR 2 LYNSEY-SYMO

Track LEMUR 2 LYNSEY-SYMO now!
10-day predictions
LEMUR 2 LYNSEY-SYMO is classified as:


NORAD ID: 42779
Int'l Code: 2017-036Q
Perigee: 492.8 km
Apogee: 511.5 km
Inclination: 97.4 °
Period: 94.5 minutes
Semi major axis: 6873 km
RCS: Unknown
Launch date: June 23, 2017
Source: United States (US)
Launch site: SRIHARIKOTA (SRI)
aabbcc
Your satellite tracking list
Your tracking list is empty




NASA's NSSDC Master Catalog

Two Line Element Set (TLE):
1 42779U 17036Q   19202.84209233 +.00001206 +00000-0 +53219-4 0  9994
2 42779 097.3518 260.6377 0013669 108.0471 252.2256 15.23593362115337
Source of the keplerian elements: AFSPC